Datum,Zeit,Temp. I.,Temp.,Temp. Sonne,Windchill X,Diff Temp.,Feuchte I.,Feuchte,Luftdruck,Regen,Wind,Richtung,Windb�en,W0
,,�C,�C,�C,�C,�C,%,%,hPa,mm,km/h,�,km/h,B0
#Calibrate=1.000 #Regen0=0mm #Location=365/365m #Baro_correction=43hPa #Station=Nexus
,,1,2,7,8,10,17,18,133,34,35,36,45,97
01.11.2018,00:00,21.5,7.2,6.7,5.6,0.0,47,76,1002.8,0.000,0.0,315,0.0,2
01.11.2018,00:01,21.5,7.2,6.7,5.6,0.0,47,76,1002.8,0.000,0.0,315,0.0,2
01.11.2018,00:05,21.5,7.1,6.5,5.3,0.0,47,77,1002.8,0.000,0.0,315,0.0,2
01.11.2018,00:10,21.5,6.9,6.2,4.9,0.0,47,77,1002.8,0.000,0.0,315,0.0,2
01.11.2018,00:15,21.5,6.7,6.0,4.6,0.0,47,78,1002.8,0.000,0.0,315,0.0,2
01.11.2018,00:20,21.4,6.6,5.8,4.2,0.0,47,77,1002.7,0.000,0.0,315,0.0,2
01.11.2018,00:25,21.4,6.4,5.6,3.9,0.0,47,78,1002.7,0.000,0.0,315,0.0,2
01.11.2018,00:30,21.4,6.3,5.4,3.6,0.0,47,78,1002.7,0.000,0.0,315,0.0,2
01.11.2018,00:35,21.4,6.2,5.3,3.5,0.0,47,78,1002.7,0.000,0.0,315,0.0,2
01.11.2018,00:40,21.4,6.1,5.2,3.4,0.0,47,78,1002.7,0.000,0.0,315,0.0,2
01.11.2018,00:45,21.4,5.9,5.1,3.4,0.0,47,79,1002.7,0.000,0.0,315,0.0,2
01.11.2018,00:50,21.4,5.9,5.1,3.4,0.0,47,79,1002.7,0.000,0.0,315,0.0,2
01.11.2018,00:55,21.4,5.9,5.1,3.4,0.0,47,80,1002.7,0.000,0.2,157,0.0,2
01.11.2018,01:00,21.4,5.8,5.0,3.4,0.0,47,80,1002.6,0.000,0.2,157,0.0,2
01.11.2018,01:05,21.4,5.7,4.9,3.3,0.0,47,80,1002.6,0.000,0.0,157,0.0,2
01.11.2018,01:10,21.2,5.7,4.9,3.2,0.0,47,80,1002.6,0.000,0.0,157,0.0,2
01.11.2018,01:15,21.2,5.7,4.9,3.3,0.0,47,81,1002.6,0.000,0.0,157,0.0,2
01.11.2018,01:20,21.2,5.6,4.8,3.3,0.0,47,81,1002.6,0.000,0.0,157,0.0,2
01.11.2018,01:25,21.2,5.5,4.8,3.3,0.0,47,81,1002.6,0.000,0.0,157,0.0,2
01.11.2018,01:30,21.2,5.5,4.7,3.2,0.0,47,81,1002.6,0.000,0.0,157,0.0,2
01.11.2018,01:35,21.2,5.5,4.7,3.1,0.0,47,81,1002.6,0.000,0.0,157,0.0,2
01.11.2018,01:40,21.2,5.5,4.7,3.0,0.0,47,81,1002.8,0.000,0.0,157,0.0,2
01.11.2018,01:45,21.2,5.3,4.5,2.9,0.0,47,81,1002.8,0.000,0.0,157,0.0,2
01.11.2018,01:50,21.2,5.3,4.5,2.8,0.0,47,81,1002.8,0.000,0.0,157,0.0,2
01.11.2018,01:55,21.2,5.1,4.3,2.6,0.0,47,82,1002.8,0.000,0.0,157,0.0,2
01.11.2018,02:00,21.2,5.1,4.2,2.5,0.0,47,81,1002.7,0.000,0.0,157,0.0,2
01.11.2018,02:05,21.2,5.0,4.1,2.3,0.0,47,82,1002.7,0.000,0.0,157,0.0,2
01.11.2018,02:10,21.4,4.9,4.0,2.2,0.0,47,82,1002.7,0.000,0.0,157,0.0,2
01.11.2018,02:15,21.4,4.7,3.8,2.1,0.0,47,82,1002.7,0.000,0.0,157,0.0,2
01.11.2018,02:20,21.4,4.7,3.8,2.0,0.0,47,82,1002.6,0.000,0.0,157,0.0,2
01.11.2018,02:25,21.4,4.6,3.7,1.9,0.0,47,82,1002.6,0.000,0.0,157,0.0,2
01.11.2018,02:30,21.4,4.5,3.6,1.7,0.0,47,82,1002.6,0.000,0.0,157,0.0,2
01.11.2018,02:35,21.4,4.5,3.5,1.6,0.0,47,82,1002.6,0.000,0.0,157,0.0,2
01.11.2018,02:40,21.4,4.4,3.4,1.5,0.0,47,82,1002.2,0.000,0.0,157,0.0,2
01.11.2018,02:45,21.4,4.3,3.4,1.5,0.0,47,83,1002.2,0.000,0.0,157,0.0,2
01.11.2018,02:50,21.4,4.3,3.4,1.5,0.0,47,83,1002.2,0.000,0.0,157,0.0,2
01.11.2018,02:55,21.4,4.2,3.3,1.4,0.0,47,83,1002.2,0.000,0.0,157,0.0,2
01.11.2018,03:00,21.4,4.1,3.2,1.4,0.0,47,83,1002.1,0.000,0.0,157,0.0,2
01.11.2018,03:05,21.4,4.1,3.2,1.4,0.0,47,83,1002.1,0.000,0.0,157,0.0,2
01.11.2018,03:10,21.4,4.0,3.1,1.2,0.0,47,83,1002.1,0.000,0.0,157,0.0,2
01.11.2018,03:15,21.4,3.9,3.0,1.1,0.0,47,83,1002.1,0.000,0.0,157,0.0,2
01.11.2018,03:20,21.2,3.9,2.9,1.0,0.0,47,83,1001.6,0.000,0.0,157,0.0,2
01.11.2018,03:25,21.4,3.8,2.8,0.9,0.0,47,83,1001.6,0.000,0.0,157,0.0,2
01.11.2018,03:30,21.4,3.7,2.8,0.9,0.0,47,83,1001.6,0.000,0.0,157,0.0,2
01.11.2018,03:35,21.2,3.6,2.7,0.8,0.0,47,83,1001.6,0.000,0.0,157,0.0,2
01.11.2018,03:40,21.2,3.5,2.5,0.6,0.0,47,83,1001.6,0.000,0.0,157,0.0,2
01.11.2018,03:45,21.2,3.5,2.5,0.5,0.0,47,84,1001.6,0.000,0.0,157,0.0,2
01.11.2018,03:50,21.2,3.4,2.4,0.4,0.0,47,83,1001.6,0.000,0.0,157,0.0,2
01.11.2018,03:55,21.2,3.3,2.3,0.2,0.0,47,83,1001.6,0.000,0.0,157,0.0,2
01.11.2018,04:00,21.2,3.2,2.2,0.1,0.0,47,84,1001.6,0.000,0.0,157,0.0,2
01.11.2018,04:05,21.3,3.1,2.1,0.2,0.0,47,84,1001.6,0.000,0.0,157,0.0,2
01.11.2018,04:10,21.3,3.1,2.1,0.2,0.0,47,84,1001.6,0.000,0.0,157,0.0,2
01.11.2018,04:15,21.2,3.0,2.0,0.1,0.0,47,84,1001.6,0.000,0.0,157,0.0,2
01.11.2018,04:20,21.2,2.9,2.0,0.1,0.0,47,84,1001.6,0.000,0.0,157,0.0,2
01.11.2018,04:25,21.2,2.9,1.9,0.0,0.0,47,84,1001.6,0.000,0.0,157,0.0,2
01.11.2018,04:30,21.2,2.9,2.0,0.1,0.0,47,84,1001.6,0.000,0.0,157,0.0,2
01.11.2018,04:35,21.3,2.8,1.9,0.1,0.0,47,84,1001.6,0.000,0.0,157,0.0,2
01.11.2018,04:40,21.2,2.8,1.9,0.1,0.0,47,84,1001.7,0.000,0.0,157,0.0,2
01.11.2018,04:45,21.4,2.8,1.9,0.2,0.0,47,84,1001.7,0.000,0.0,157,0.0,2
01.11.2018,04:50,21.4,2.9,2.0,0.3,0.0,47,85,1001.7,0.000,0.0,157,0.0,2
01.11.2018,04:55,21.4,2.9,2.1,0.5,0.0,47,85,1001.7,0.000,0.0,157,0.0,2
01.11.2018,05:00,21.4,3.0,2.2,0.6,0.0,47,85,1001.2,0.000,0.0,157,0.0,2
01.11.2018,05:05,21.2,3.1,2.3,0.8,0.0,47,85,1001.2,0.000,0.0,157,0.0,2
01.11.2018,05:10,21.2,3.1,2.4,0.9,0.0,47,85,1001.2,0.000,0.0,22,0.0,2
01.11.2018,05:15,21.2,3.1,2.4,1.1,0.0,47,85,1001.2,0.000,0.2,360,1.6,2
01.11.2018,05:20,21.2,3.2,2.5,1.2,0.0,47,85,1001.0,0.000,0.0,360,0.0,2
01.11.2018,05:25,21.3,3.3,2.6,1.3,0.0,47,85,1001.0,0.000,0.0,360,0.0,2
01.11.2018,05:30,21.3,3.3,2.7,1.4,0.0,47,85,1001.0,0.000,0.0,360,0.0,2
01.11.2018,05:35,21.3,3.4,2.8,1.5,0.0,47,85,1001.0,0.000,0.0,360,0.0,2
01.11.2018,05:40,21.2,3.5,2.8,1.5,0.0,47,85,1001.2,0.000,0.0,360,0.0,2
01.11.2018,05:45,21.2,3.5,2.9,1.6,0.0,47,85,1001.2,0.000,0.0,337,0.0,2
01.11.2018,05:50,21.2,3.5,2.9,1.6,0.0,47,85,1001.2,0.000,0.0,337,0.0,2
01.11.2018,05:55,21.2,3.5,2.9,1.8,0.0,47,85,1001.2,0.000,0.0,360,0.0,2
01.11.2018,06:00,21.2,3.6,3.0,1.8,0.0,47,85,1001.2,0.000,0.0,360,0.0,2
01.11.2018,06:05,21.2,3.6,3.0,1.9,0.0,47,85,1001.2,0.000,0.0,360,0.0,2
01.11.2018,06:10,21.2,3.7,3.1,2.0,0.0,47,85,1001.2,0.000,0.0,360,1.6,2
01.11.2018,06:15,21.2,3.8,3.2,2.0,0.0,47,85,1001.2,0.000,0.2,360,0.0,2
01.11.2018,06:20,21.2,3.8,3.2,2.1,0.0,47,85,1000.4,0.000,0.2,360,0.0,2
01.11.2018,06:25,21.2,3.9,3.3,2.1,0.0,47,85,1000.4,0.000,0.2,360,0.0,2
01.11.2018,06:30,21.2,3.9,3.3,2.2,0.0,47,85,1000.4,0.000,0.2,337,0.0,2
01.11.2018,06:35,21.2,4.0,3.5,2.4,0.0,47,85,1000.4,0.000,0.2,337,2.6,2
01.11.2018,06:40,21.1,4.0,3.5,2.4,0.0,47,85,1000.1,0.000,0.5,315,0.0,2
01.11.2018,06:45,21.1,4.0,3.5,2.5,0.0,47,85,1000.1,0.000,0.6,315,0.0,2
01.11.2018,06:50,21.1,4.1,3.6,2.5,0.0,47,85,1000.1,0.000,0.2,315,0.0,2
01.11.2018,06:55,21.1,4.2,3.7,2.6,0.0,47,85,1000.1,0.000,0.0,315,0.0,2
01.11.2018,07:00,21.1,4.3,3.7,2.6,0.0,47,85,1000.1,0.000,0.0,315,0.0,2
01.11.2018,07:05,21.1,4.4,3.9,2.8,0.0,47,85,1000.1,0.000,0.0,315,0.0,2
01.11.2018,07:10,21.1,4.5,3.9,2.8,0.0,47,85,1000.1,0.000,0.0,315,0.0,2
01.11.2018,07:15,21.2,4.5,4.0,3.0,0.0,47,85,1000.1,0.000,0.0,315,0.0,2
01.11.2018,07:20,21.2,4.6,4.1,3.0,0.0,47,85,1000.1,0.000,0.0,315,0.0,2
01.11.2018,07:25,21.2,4.6,4.1,3.2,0.0,47,85,1000.1,0.000,0.0,315,0.0,2
01.11.2018,07:30,21.2,4.7,4.2,3.2,0.0,47,85,1000.1,0.000,0.0,315,0.0,2
01.11.2018,07:35,21.2,4.7,4.2,3.2,0.0,47,84,1000.1,0.000,0.0,315,0.0,2
01.11.2018,07:40,21.2,4.7,4.2,3.1,0.0,47,84,1000.0,0.000,0.0,315,0.0,2
01.11.2018,07:45,21.2,4.8,4.3,3.2,0.0,47,85,1000.0,0.000,0.0,315,0.0,2
01.11.2018,07:50,21.2,4.8,4.3,3.3,0.0,47,85,1000.0,0.000,0.0,315,0.0,2
01.11.2018,07:55,21.1,4.9,4.4,3.4,0.0,47,85,1000.0,0.000,0.0,315,0.0,2
01.11.2018,08:00,21.1,4.9,4.4,3.4,0.0,47,85,1000.1,0.000,0.0,315,0.0,2
01.11.2018,08:05,21.1,5.1,4.6,3.6,0.0,47,85,1000.1,0.000,0.0,315,0.0,2
01.11.2018,08:10,21.1,5.1,4.6,3.7,0.0,47,84,1000.1,0.000,0.0,315,0.0,2
01.11.2018,08:15,21.1,5.1,4.7,3.8,0.0,47,84,1000.1,0.000,0.0,315,0.0,2
01.11.2018,08:20,21.1,5.3,4.8,3.9,0.0,46,84,1000.2,0.000,0.0,315,0.0,2
01.11.2018,08:25,21.1,5.4,4.9,4.0,0.0,46,84,1000.2,0.000,0.2,315,2.1,2
01.11.2018,08:30,21.1,5.4,5.0,4.1,0.0,46,84,1000.2,0.000,0.2,315,0.0,2
01.11.2018,08:35,21.1,5.5,5.1,4.3,0.0,46,84,1000.2,0.000,0.2,315,0.0,2
01.11.2018,08:40,21.1,5.5,5.1,4.4,0.0,46,84,1000.4,0.000,0.0,315,0.0,2
01.11.2018,08:45,21.1,5.7,5.3,4.6,0.0,46,84,1000.4,0.000,0.0,315,1.6,2
01.11.2018,08:50,21.1,5.9,5.5,4.7,0.0,46,84,1000.4,0.000,0.0,315,0.0,2
01.11.2018,08:55,21.0,5.9,5.6,4.9,0.0,46,84,1000.4,0.000,0.2,315,2.1,2
01.11.2018,09:00,21.1,6.1,5.8,5.1,0.0,46,84,1000.1,0.000,0.3,247,0.0,2
01.11.2018,09:05,21.0,6.2,5.9,5.2,0.0,46,84,1000.1,0.000,0.5,292,0.0,2
01.11.2018,09:10,21.1,6.3,6.0,5.4,0.0,46,84,1000.1,0.000,0.2,292,0.0,2
01.11.2018,09:15,21.1,6.4,6.1,5.6,0.0,46,83,1000.1,0.000,0.0,292,0.0,2
01.11.2018,09:20,21.1,6.5,6.2,5.7,0.0,46,83,1000.3,0.000,0.0,292,0.0,2
01.11.2018,09:25,21.1,6.7,6.4,5.8,0.0,47,83,1000.3,0.000,0.0,292,0.0,2
01.11.2018,09:30,21.2,6.7,6.5,6.0,0.0,47,83,1000.3,0.000,0.0,292,0.0,2
01.11.2018,09:35,21.2,6.7,6.5,6.1,0.0,47,83,1000.3,0.000,0.3,292,1.9,2
01.11.2018,09:40,21.2,6.8,6.6,6.2,0.0,47,83,1000.3,0.000,0.3,292,0.0,2
01.11.2018,09:45,21.2,6.9,6.7,6.4,0.0,47,83,1000.3,0.000,0.2,292,0.0,2
01.11.2018,09:50,21.2,7.1,6.9,6.6,0.0,47,83,1000.3,0.000,0.0,292,0.0,2
01.11.2018,09:55,21.2,7.3,7.2,6.9,0.0,47,83,1000.3,0.000,0.2,315,0.0,2
01.11.2018,10:00,21.2,7.5,7.5,7.4,0.0,47,83,1000.7,0.000,0.3,315,2.4,2
01.11.2018,10:05,21.2,8.2,8.7,8.7,0.0,47,82,1000.7,0.000,1.4,292,4.5,2
01.11.2018,10:10,21.2,8.5,9.4,9.4,0.0,47,81,1000.7,0.000,1.6,112,0.0,2
01.11.2018,10:15,21.2,8.7,9.9,9.9,0.0,47,80,1000.7,0.000,1.0,45,0.0,2
01.11.2018,10:20,21.2,8.7,9.9,9.9,0.0,47,79,1000.8,0.000,0.0,22,0.0,2
01.11.2018,10:25,21.1,8.9,9.7,9.7,0.0,47,79,1000.8,0.000,0.3,315,1.8,2
01.11.2018,10:30,21.1,9.1,9.6,9.6,0.0,47,78,1000.8,0.000,0.3,315,0.0,2
01.11.2018,10:35,21.1,9.0,9.5,9.5,0.0,46,78,1000.8,0.000,0.3,157,0.0,2
01.11.2018,10:40,21.1,9.1,9.4,9.4,0.0,47,78,1000.2,0.000,0.5,112,0.0,2
01.11.2018,10:45,21.1,9.2,9.5,9.5,0.0,47,77,1000.2,0.000,0.2,135,1.8,2
01.11.2018,10:50,21.1,9.3,9.7,9.7,0.0,47,76,1000.2,0.000,0.2,225,0.0,2
01.11.2018,10:55,21.1,9.5,10.0,10.0,0.0,46,76,1000.2,0.000,0.2,225,0.0,2
01.11.2018,11:00,21.1,9.6,10.1,10.1,0.0,46,76,1000.7,0.000,0.0,315,0.0,2
01.11.2018,11:05,21.1,10.0,10.4,10.4,0.0,46,75,1000.7,0.000,0.2,315,0.0,2
01.11.2018,11:10,21.1,10.2,10.7,10.7,0.0,46,74,1000.7,0.000,0.2,22,0.0,2
01.11.2018,11:15,21.1,10.3,11.1,11.1,0.0,46,74,1000.7,0.000,0.2,292,2.3,2
01.11.2018,11:20,21.1,10.5,11.3,11.3,0.0,46,73,1000.9,0.000,0.5,247,0.0,2
01.11.2018,11:25,21.0,10.7,11.5,11.5,0.0,47,73,1000.9,0.000,0.6,315,0.0,2
01.11.2018,11:30,21.0,10.9,11.9,11.9,0.0,47,73,1000.9,0.000,0.3,247,0.0,2
01.11.2018,11:35,21.0,11.2,12.4,12.4,0.0,47,72,1000.9,0.000,0.2,247,0.0,2
01.11.2018,11:40,21.0,11.2,12.4,12.4,0.0,47,72,1000.3,0.000,0.0,247,0.0,2
01.11.2018,11:45,21.0,11.8,12.8,12.8,0.0,47,71,1000.3,0.000,0.0,112,0.0,2
01.11.2018,11:50,21.0,12.0,14.7,14.7,0.0,47,70,1000.3,0.000,0.6,270,3.7,2
01.11.2018,11:55,21.0,11.9,16.3,16.3,0.0,47,69,1000.3,0.000,1.4,270,2.9,2
01.11.2018,12:00,21.0,11.8,16.3,16.3,0.0,47,69,1000.2,0.000,1.6,247,1.6,2
01.11.2018,12:05,21.0,11.9,16.8,16.8,0.0,47,69,1000.2,0.000,1.6,202,1.8,2
01.11.2018,12:10,21.0,11.9,17.5,17.5,0.0,47,68,1000.2,0.000,1.1,315,4.2,2
01.11.2018,12:15,21.1,11.9,17.7,17.7,0.0,47,68,1000.2,0.000,1.3,270,4.5,2
01.11.2018,12:20,21.1,11.8,17.7,17.7,0.0,47,68,1001.0,0.000,1.8,270,2.7,2
01.11.2018,12:25,21.1,11.8,16.1,16.1,0.0,47,68,1001.0,0.000,2.3,247,6.3,2
01.11.2018,12:30,21.1,11.9,14.8,14.8,0.0,47,68,1001.0,0.000,2.1,315,4.0,2
01.11.2018,12:35,21.1,11.9,13.1,13.1,0.0,47,68,1001.0,0.000,2.3,247,2.7,2
01.11.2018,12:40,21.1,11.9,12.5,12.5,0.0,47,68,1001.3,0.000,2.7,157,5.1,2
01.11.2018,12:45,21.1,11.9,11.9,11.9,0.0,47,67,1001.3,0.000,3.2,315,7.2,2
01.11.2018,12:50,21.1,11.9,11.8,11.7,0.0,47,66,1001.3,0.000,3.1,315,2.9,2
01.11.2018,12:55,21.1,11.9,11.8,11.5,0.0,46,65,1001.3,0.000,3.5,225,6.0,2
01.11.2018,13:00,21.1,12.0,11.8,11.4,0.0,46,65,1001.4,0.000,3.5,270,4.8,2
01.11.2018,13:05,21.1,12.0,11.8,11.3,0.0,46,64,1001.4,0.000,3.7,202,7.7,2
01.11.2018,13:10,21.1,11.9,11.7,11.3,0.0,46,64,1001.4,0.000,4.0,270,4.2,2
01.11.2018,13:15,21.0,12.0,11.8,11.3,0.0,46,64,1001.4,0.000,4.3,270,10.5,2
01.11.2018,13:20,21.0,12.0,11.8,11.3,0.0,46,64,1001.8,0.000,3.5,270,3.1,2
01.11.2018,13:25,21.0,12.1,11.8,11.3,0.0,46,65,1001.8,0.000,2.6,247,3.7,2
01.11.2018,13:30,21.0,12.2,11.9,11.3,0.0,47,65,1001.8,0.000,2.6,67,3.2,2
01.11.2018,13:35,21.0,12.3,12.0,11.3,0.0,47,65,1001.8,0.000,2.6,292,2.9,2
01.11.2018,13:40,21.0,12.2,11.9,11.4,0.0,47,65,1002.2,0.000,2.7,315,2.7,2
01.11.2018,13:45,21.0,12.2,11.9,11.4,0.0,47,64,1002.2,0.000,3.1,270,4.5,2
01.11.2018,13:50,21.0,12.2,12.0,11.5,0.0,47,64,1002.2,0.000,3.2,337,3.9,2
01.11.2018,13:55,21.0,12.3,12.0,11.5,0.0,47,64,1002.2,0.000,3.1,315,1.8,2
01.11.2018,14:00,21.0,12.3,12.0,11.4,0.0,47,64,1002.4,0.000,2.6,247,1.6,2
01.11.2018,14:05,21.0,12.2,11.9,11.3,0.0,47,62,1002.4,0.000,2.3,247,7.4,2
01.11.2018,14:10,21.0,12.2,11.9,11.3,0.0,47,62,1002.4,0.000,2.9,315,1.9,2
01.11.2018,14:15,21.0,12.2,11.9,11.3,0.0,47,61,1002.4,0.000,4.5,157,10.9,2
01.11.2018,14:20,21.0,12.0,11.8,11.3,0.0,47,62,1002.8,0.000,4.5,135,2.9,2
01.11.2018,14:25,21.0,12.1,11.8,11.1,0.0,47,62,1002.8,0.000,3.4,247,3.4,2
01.11.2018,14:30,21.0,12.0,11.7,11.1,0.0,47,62,1002.8,0.000,2.6,337,2.1,2
01.11.2018,14:35,21.0,12.0,11.7,11.1,0.0,47,63,1002.8,0.000,2.7,247,1.9,2
01.11.2018,14:40,21.0,12.0,11.7,11.1,0.0,47,63,1002.2,0.000,2.3,247,0.0,2
01.11.2018,14:45,21.0,11.9,11.6,11.0,0.0,47,63,1002.2,0.000,1.9,202,4.5,2
01.11.2018,14:50,21.0,11.9,11.6,10.9,0.0,47,64,1002.2,0.000,2.3,270,2.9,2
01.11.2018,14:55,21.0,11.9,11.5,10.8,0.0,48,64,1002.2,0.000,1.8,315,3.4,2
01.11.2018,15:00,21.0,11.9,11.5,10.8,0.0,48,64,1002.4,0.000,1.6,270,0.0,2
01.11.2018,15:05,21.1,11.9,11.5,10.8,0.0,48,64,1002.4,0.000,1.9,270,3.2,2
01.11.2018,15:10,21.1,11.8,11.5,10.8,0.0,48,64,1002.4,0.000,1.9,45,3.2,2
01.11.2018,15:15,21.1,11.7,11.4,10.7,0.0,48,65,1002.4,0.000,1.8,270,1.8,2
01.11.2018,15:20,21.1,11.7,11.4,10.7,0.0,48,65,1002.6,0.000,1.6,270,1.9,2
01.11.2018,15:25,21.2,11.6,11.3,10.7,0.0,48,65,1002.6,0.000,2.3,270,0.0,2
01.11.2018,15:30,21.2,11.6,11.3,10.7,0.0,48,65,1002.6,0.000,2.4,292,3.9,2
01.11.2018,15:35,21.2,11.5,11.2,10.7,0.0,47,66,1002.6,0.000,2.7,270,2.6,2
01.11.2018,15:40,21.2,11.4,11.1,10.6,0.0,47,66,1002.8,0.000,2.6,225,2.1,2
01.11.2018,15:45,21.2,11.3,11.0,10.4,0.0,47,66,1002.8,0.000,1.8,247,2.6,2
01.11.2018,15:50,21.2,11.2,10.9,10.3,0.0,47,67,1002.8,0.000,1.4,315,0.0,2
01.11.2018,15:55,21.2,11.1,10.8,10.1,0.0,47,67,1002.8,0.000,1.1,292,0.0,2
01.11.2018,16:00,21.2,11.1,10.7,10.0,0.0,47,68,1002.7,0.000,0.5,315,1.6,2
01.11.2018,16:05,21.2,11.1,10.7,10.0,0.0,47,68,1002.7,0.000,1.1,202,3.2,2
01.11.2018,16:10,21.2,11.0,10.7,10.0,0.0,47,68,1002.7,0.000,1.4,247,1.9,2
01.11.2018,16:15,21.2,11.0,10.7,10.0,0.0,47,68,1002.7,0.000,1.6,292,0.0,2
01.11.2018,16:20,21.2,10.8,10.5,9.9,0.0,48,69,1002.8,0.000,1.0,292,0.0,2
01.11.2018,16:25,21.2,10.6,10.2,9.4,0.0,48,69,1002.8,0.000,0.0,292,0.0,2
01.11.2018,16:30,21.2,10.4,9.9,8.9,0.0,48,69,1002.8,0.000,0.3,292,0.0,2
01.11.2018,16:35,21.3,10.1,9.5,8.2,0.0,48,70,1002.8,0.000,0.3,270,0.0,2
01.11.2018,16:40,21.2,10.0,9.3,7.9,0.0,48,71,1002.9,0.000,0.2,270,0.0,2
01.11.2018,16:45,21.2,9.7,8.9,7.2,0.0,49,72,1002.9,0.000,0.2,270,0.0,2
01.11.2018,16:50,21.4,9.5,8.6,6.9,0.0,49,72,1002.9,0.000,0.0,270,0.0,2
01.11.2018,16:52,21.4,9.2,8.3,6.4,0.0,49,73,1002.9,0.000,0.0,270,0.0,2
01.11.2018,16:54,21.4,9.2,8.3,6.4,0.0,49,73,1002.9,0.000,0.0,270,0.0,2
01.11.2018,16:55,21.4,9.2,8.3,6.4,0.0,49,73,1002.9,0.000,0.0,270,0.0,2
01.11.2018,17:00,21.4,9.0,8.0,6.1,0.0,49,73,1002.9,0.000,0.0,270,0.0,2
01.11.2018,17:05,21.4,8.7,7.7,5.7,0.0,49,75,1002.9,0.000,0.0,270,0.0,2
01.11.2018,17:10,21.4,8.5,7.5,5.5,0.0,49,75,1002.9,0.000,0.0,270,0.0,2
01.11.2018,17:15,21.4,8.3,7.3,5.2,0.0,49,76,1002.9,0.000,0.0,270,0.0,2
01.11.2018,17:20,21.4,8.1,7.1,5.0,0.0,49,76,1003.2,0.000,0.0,270,0.0,2
01.11.2018,17:25,21.4,7.9,6.8,4.7,0.0,49,77,1003.2,0.000,0.0,270,0.0,2
01.11.2018,17:30,21.5,7.7,6.6,4.5,0.0,49,77,1003.2,0.000,0.0,270,0.0,2
01.11.2018,17:35,21.4,7.5,6.4,4.3,0.0,49,78,1003.2,0.000,0.0,270,0.0,2
01.11.2018,17:40,21.4,7.5,6.4,4.2,0.0,49,78,1003.6,0.000,0.0,270,0.0,2
01.11.2018,17:45,21.4,7.4,6.3,4.0,0.0,49,78,1003.6,0.000,0.0,270,0.0,2
01.11.2018,17:50,21.4,7.2,6.1,4.0,0.0,50,78,1003.6,0.000,0.0,270,0.0,2
01.11.2018,17:55,21.4,7.1,6.0,3.9,0.0,50,79,1003.6,0.000,0.0,270,0.0,2
01.11.2018,18:00,21.4,7.0,5.9,3.7,0.0,50,79,1003.9,0.000,0.0,270,0.0,2
01.11.2018,18:05,21.5,6.8,5.7,3.5,0.0,50,79,1003.9,0.000,0.0,270,0.0,2
01.11.2018,18:10,21.5,6.7,5.6,3.4,0.0,50,79,1003.9,0.000,0.0,270,0.0,2
01.11.2018,18:15,21.5,6.6,5.5,3.3,0.0,51,79,1003.9,0.000,0.0,270,0.0,2
01.11.2018,18:20,21.6,6.5,5.4,3.2,0.0,50,79,1004.2,0.000,0.0,270,0.0,2
01.11.2018,18:25,21.6,6.3,5.2,3.0,0.0,50,80,1004.2,0.000,0.0,270,0.0,2
01.11.2018,18:30,21.6,6.2,5.1,2.9,0.0,50,80,1004.2,0.000,0.0,270,0.0,2
01.11.2018,18:35,21.6,6.1,5.0,2.8,0.0,50,80,1004.2,0.000,0.0,270,0.0,2
01.11.2018,18:40,21.6,6.1,5.0,2.8,0.0,50,80,1004.4,0.000,0.0,270,0.0,2
01.11.2018,18:45,21.6,5.9,4.9,2.8,0.0,50,80,1004.4,0.000,0.0,270,0.0,2
01.11.2018,18:50,21.6,5.9,4.9,2.8,0.0,50,80,1004.4,0.000,0.0,270,0.0,2
01.11.2018,18:55,21.6,5.8,4.8,2.7,0.0,50,81,1004.4,0.000,0.0,270,0.0,2
01.11.2018,19:00,21.6,5.7,4.7,2.6,0.0,49,81,1004.6,0.000,0.0,270,0.0,2
01.11.2018,19:05,21.6,5.5,4.5,2.4,0.0,49,81,1004.6,0.000,0.0,270,0.0,2
01.11.2018,19:10,21.5,5.5,4.4,2.2,0.0,48,81,1004.6,0.000,0.0,270,0.0,2
01.11.2018,19:15,21.2,5.3,4.2,2.1,0.0,47,81,1004.6,0.000,0.0,270,0.0,2
01.11.2018,19:20,21.2,5.3,4.2,2.1,0.0,47,82,1004.9,0.000,0.0,270,0.0,2
01.11.2018,19:25,21.2,5.2,4.1,2.0,0.0,47,82,1004.9,0.000,0.0,270,0.0,2
01.11.2018,19:30,21.2,5.2,4.1,2.0,0.0,47,82,1004.9,0.000,0.0,270,0.0,2
01.11.2018,19:35,21.2,5.1,4.0,1.8,0.0,47,82,1004.9,0.000,0.0,270,0.0,2
01.11.2018,19:40,21.2,5.0,4.0,1.9,0.0,47,82,1005.0,0.000,0.0,270,1.6,2
01.11.2018,19:45,21.2,4.9,3.9,1.9,0.0,47,83,1005.0,0.000,0.0,270,0.0,2
01.11.2018,19:50,21.2,4.8,3.8,1.8,0.0,47,83,1005.0,0.000,0.0,270,0.0,2
01.11.2018,19:55,21.2,4.8,3.8,1.7,0.0,47,83,1005.0,0.000,0.0,270,0.0,2
01.11.2018,20:00,21.2,4.7,3.7,1.7,0.0,47,83,1005.4,0.000,0.0,270,0.0,2
01.11.2018,20:05,21.2,4.7,3.7,1.6,0.0,47,83,1005.4,0.000,0.0,270,0.0,2
01.11.2018,20:10,21.2,4.7,3.6,1.5,0.0,47,83,1005.4,0.000,0.0,270,0.0,2
01.11.2018,20:15,21.2,4.6,3.6,1.6,0.0,47,83,1005.4,0.000,0.0,270,0.0,2
01.11.2018,20:20,21.2,4.6,3.6,1.7,0.0,47,83,1005.8,0.000,0.0,270,0.0,1
01.11.2018,20:25,21.2,4.7,3.8,2.0,0.0,47,84,1005.8,0.000,0.0,270,0.0,1
01.11.2018,20:30,21.2,4.7,3.8,2.1,0.0,47,84,1005.8,0.000,0.0,270,0.0,1
01.11.2018,20:35,21.3,4.9,4.1,2.4,0.0,47,84,1005.8,0.000,0.0,270,0.0,1
01.11.2018,20:40,21.4,4.9,4.1,2.6,0.0,47,84,1006.5,0.000,0.0,270,0.0,1
01.11.2018,20:45,21.4,5.1,4.4,2.9,0.0,48,84,1006.5,0.000,0.0,270,0.0,1
01.11.2018,20:50,21.4,5.1,4.4,3.1,0.0,48,84,1006.5,0.000,0.0,270,0.0,1
01.11.2018,20:55,21.4,5.2,4.6,3.4,0.0,48,84,1006.5,0.000,0.0,292,0.0,1
01.11.2018,21:00,21.5,5.3,4.7,3.5,0.0,48,84,1007.1,0.000,0.0,292,0.0,1
01.11.2018,21:05,21.5,5.3,4.7,3.5,0.0,48,84,1007.1,0.000,0.0,292,0.0,1
01.11.2018,21:10,21.6,5.5,4.8,3.5,0.0,48,84,1007.1,0.000,0.0,292,0.0,1
01.11.2018,21:15,21.6,5.5,4.8,3.5,0.0,48,84,1007.1,0.000,0.0,292,0.0,1
01.11.2018,21:20,21.6,5.5,4.8,3.5,0.0,48,84,1007.5,0.000,0.0,292,0.0,1
01.11.2018,21:25,21.6,5.6,5.1,4.0,0.0,48,84,1007.5,0.000,0.8,292,0.0,1
01.11.2018,21:30,21.6,5.6,5.1,4.1,0.0,49,85,1007.5,0.000,0.8,180,0.0,1
01.11.2018,21:35,21.7,5.6,5.1,4.1,0.0,49,85,1007.5,0.000,0.3,135,0.0,1
01.11.2018,21:40,21.7,5.6,5.1,4.2,0.0,49,85,1008.0,0.000,0.2,135,0.0,1
01.11.2018,21:45,21.8,5.7,5.2,4.3,0.0,49,85,1008.0,0.000,0.3,315,1.9,1
01.11.2018,21:50,21.8,5.6,5.1,4.2,0.0,49,85,1008.0,0.000,0.5,337,0.0,1
01.11.2018,21:55,21.8,5.5,5.0,4.0,0.0,48,86,1008.0,0.000,0.5,315,0.0,1
01.11.2018,22:00,21.8,5.3,4.8,3.8,0.0,48,86,1007.8,0.000,0.0,315,0.0,1
01.11.2018,22:05,21.7,5.2,4.6,3.4,0.0,48,86,1007.8,0.000,0.0,315,0.0,1
01.11.2018,22:10,21.7,5.1,4.5,3.2,0.0,48,86,1007.8,0.000,0.0,315,0.0,1
01.11.2018,22:15,21.6,5.0,4.3,2.9,0.0,48,86,1007.8,0.000,0.0,315,0.0,1
01.11.2018,22:20,21.6,4.9,4.2,2.8,0.0,48,86,1007.8,0.000,0.0,315,0.0,1
01.11.2018,22:25,21.6,4.8,4.0,2.5,0.0,48,86,1007.8,0.000,0.0,315,0.0,1
01.11.2018,22:30,21.6,4.7,3.9,2.4,0.0,48,86,1007.8,0.000,0.0,292,0.0,1
01.11.2018,22:35,21.5,4.6,3.8,2.2,0.0,48,86,1007.8,0.000,0.0,292,0.0,1
01.11.2018,22:40,21.5,4.5,3.7,2.1,0.0,48,86,1007.6,0.000,0.0,292,0.0,1
01.11.2018,22:45,21.5,4.4,3.6,1.9,0.0,48,86,1007.6,0.000,0.0,292,0.0,1
01.11.2018,22:50,21.5,4.4,3.6,1.9,0.0,48,86,1007.6,0.000,0.0,292,0.0,1
01.11.2018,22:55,21.5,4.3,3.4,1.7,0.0,48,86,1007.6,0.000,0.0,292,0.0,1
01.11.2018,23:00,21.4,4.3,3.4,1.6,0.0,48,86,1007.5,0.000,0.0,292,0.0,1
01.11.2018,23:05,21.4,4.2,3.3,1.5,0.0,48,86,1007.5,0.000,0.0,292,0.0,1
01.11.2018,23:10,21.4,4.1,3.2,1.5,0.0,48,86,1007.5,0.000,0.0,292,0.0,1
01.11.2018,23:15,21.4,3.9,3.0,1.3,0.0,48,86,1007.5,0.000,0.0,292,0.0,1
01.11.2018,23:20,21.4,3.9,3.0,1.2,0.0,48,86,1007.5,0.000,0.0,90,0.0,1
01.11.2018,23:25,21.4,3.8,2.9,1.2,0.0,48,86,1007.5,0.000,0.2,90,0.0,1
01.11.2018,23:30,21.4,3.8,3.0,1.4,0.0,48,87,1007.5,0.000,0.3,157,0.0,1
01.11.2018,23:35,21.4,3.7,3.0,1.5,0.0,48,87,1007.5,0.000,0.2,157,0.0,1
01.11.2018,23:40,21.4,3.7,2.9,1.4,0.0,48,87,1007.6,0.000,0.0,157,0.0,1
01.11.2018,23:42,21.4,3.6,2.8,1.3,0.0,48,87,1007.6,0.000,0.2,315,1.9,1
01.11.2018,23:47,21.4,3.5,2.8,1.4,0.0,48,87,1007.6,0.000,0.2,315,0.0,1
01.11.2018,23:52,21.4,3.5,2.7,1.2,0.0,48,87,1007.6,0.000,0.2,315,0.0,1
01.11.2018,23:57,21.4,3.4,2.7,1.2,0.0,48,87,1007.6,0.000,0.2,135,1.6,1
02.11.2018,00:02,21.4,3.4,2.6,1.1,0.0,48,87,1007.6,0.000,0.3,135,0.0,1
02.11.2018,00:07,21.4,3.3,2.6,1.1,0.0,48,87,1007.6,0.000,0.2,157,0.0,1
02.11.2018,00:12,21.4,3.3,2.5,1.0,0.0,48,87,1007.6,0.000,0.0,157,0.0,1
02.11.2018,00:17,21.2,3.2,2.4,0.9,0.0,48,87,1008.0,0.000,0.0,157,0.0,1
02.11.2018,00:22,21.3,3.1,2.3,0.8,0.0,48,87,1008.0,0.000,0.0,157,0.0,1
02.11.2018,00:27,21.2,3.1,2.3,0.8,0.0,48,87,1008.0,0.000,0.0,157,0.0,1
02.11.2018,00:32,21.2,3.1,2.3,0.6,0.0,48,87,1008.0,0.000,0.0,157,0.0,1
02.11.2018,00:37,21.2,3.0,2.2,0.5,0.0,48,87,1007.2,0.000,0.0,157,0.0,1
02.11.2018,00:42,21.1,2.9,2.1,0.4,0.0,48,87,1007.2,0.000,0.0,157,0.0,1
02.11.2018,00:47,21.0,2.9,2.1,0.5,0.0,48,87,1007.2,0.000,0.0,157,0.0,1
02.11.2018,00:52,21.0,2.8,2.0,0.5,0.0,48,87,1007.2,0.000,0.0,157,0.0,1
02.11.2018,00:57,21.0,2.8,2.0,0.4,0.0,48,87,1008.0,0.000,0.0,157,0.0,1
02.11.2018,01:02,20.9,2.8,2.0,0.3,0.0,48,87,1008.0,0.000,0.0,157,0.0,1
02.11.2018,01:07,20.9,2.7,1.9,0.3,0.0,48,87,1008.0,0.000,0.0,157,0.0,1
02.11.2018,01:12,20.8,2.7,1.9,0.3,0.0,48,87,1008.0,0.000,0.2,157,0.0,1
02.11.2018,01:17,20.8,2.7,1.9,0.4,0.0,48,87,1008.2,0.000,0.2,157,0.0,1
02.11.2018,01:22,20.8,2.7,1.9,0.3,0.0,48,87,1008.2,0.000,0.0,157,0.0,1
02.11.2018,01:27,20.8,2.7,1.9,0.3,0.0,48,88,1008.2,0.000,0.0,157,0.0,1
02.11.2018,01:32,20.8,2.7,1.9,0.3,0.0,48,88,1008.2,0.000,0.0,157,0.0,1
02.11.2018,01:37,20.8,2.7,1.9,0.3,0.0,48,88,1008.3,0.000,0.0,157,0.0,1
02.11.2018,01:42,20.8,2.6,1.8,0.2,0.0,48,88,1008.3,0.000,0.0,157,0.0,1
02.11.2018,01:47,20.8,2.6,1.8,0.1,0.0,48,88,1008.3,0.000,0.0,157,0.0,1
02.11.2018,01:52,20.7,2.6,1.8,0.2,0.0,48,88,1008.3,0.000,0.0,157,0.0,1
02.11.2018,01:57,20.7,2.6,1.8,0.2,0.0,48,88,1008.4,0.000,0.0,157,0.0,1
02.11.2018,02:02,20.7,2.6,1.8,0.3,0.0,48,88,1008.4,0.000,0.0,157,0.0,1
02.11.2018,02:07,20.6,2.5,1.8,0.3,0.0,48,88,1008.4,0.000,0.0,157,0.0,1
02.11.2018,02:12,20.6,2.6,1.8,0.2,0.0,48,88,1008.4,0.000,0.0,157,0.0,1
02.11.2018,02:17,20.6,2.6,1.8,0.2,0.0,48,88,1008.3,0.000,0.0,157,0.0,1
02.11.2018,02:22,20.6,2.5,1.7,0.1,0.0,48,88,1008.3,0.000,0.0,157,0.0,1
02.11.2018,02:27,20.5,2.5,1.7,0.2,0.0,48,88,1008.3,0.000,0.0,157,0.0,1
02.11.2018,02:32,20.5,2.5,1.7,0.2,0.0,48,88,1008.3,0.000,0.0,157,0.0,1
02.11.2018,02:37,20.5,2.5,1.7,0.2,0.0,48,88,1008.2,0.000,0.0,157,0.0,1
02.11.2018,02:42,20.4,2.5,1.7,0.1,0.0,48,88,1008.2,0.000,0.0,157,0.0,1
02.11.2018,02:47,20.4,2.5,1.7,0.2,0.0,48,88,1008.2,0.000,0.0,157,0.0,1